Regional Weather Roundup
Issued by NWS

Home | Current Version | Previous Version | Text Only | Print | Product List | Glossary On
Versions: 1 2 3 4 5 6 7 8 9 10 11 12 13 14 15 16 17 18 19 20 21 22 23 24
000
ASUS45 KCYS 241110
RWRWY

WYOMING REGIONAL WEATHER ROUNDUP
NATIONAL WEATHER SERVICE CHEYENNE WY
500 AM MDT FRI OCT 24 2014

NOTE:  "FAIR" INDICATES FEW OR NO CLOUDS BELOW 12,000 FEET
WITH NO SIGNIFICANT WEATHER AND/OR OBSTRUCTIONS TO VISIBILITY.

WYZ001-241200-
YELLOWSTONE NATIONAL PARK

CITY           SKY/WX    TMP DP  RH WIND       PRES   REMARKS
LK YELLOWSTONE   N/A     43  30  60 W7        30.20
W YELLOWSTONE  NOT AVBL

$$
WYZ002>013-054>058-071-098>099-241200-
NORTHERN WYOMING

CITY           SKY/WX    TMP DP  RH WIND       PRES   REMARKS
JACKSON        CLOUDY    48  28  46 S9        30.17S
CODY           CLOUDY    61  30  31 CALM      30.01
GREYBULL       CLOUDY    40  28  62 CALM      29.97S
WORLAND        CLOUDY    38  27  64 CALM      29.97S
SHERIDAN       CLOUDY    44  29  55 CALM      29.94R
BUFFALO        CLOUDY    52  25  35 W3        29.99R
GILLETTE       CLOUDY    54  25  32 SW6       29.96R
HULETT         FAIR      50  28  43 SW8       29.96
NEWCASTLE      FAIR      43  30  61 N3        29.99

$$
WYZ014>020-022>026-101>103-241200-
CENTRAL WYOMING

CITY           SKY/WX    TMP DP  RH WIND       PRES   REMARKS
BIG PINEY      MOCLDY    31  25  78 CALM      30.21S
PINEDALE       PTSUNNY   32  28  86 CALM      30.21
DUBOIS         FAIR      45  23  42 NW20      30.14R
LANDER         MOCLDY    47  25  42 MISG      30.05R
RIVERTON       MOCLDY    43  24  47 CALM      30.06S
CASPER         CLOUDY    51  29  42 W10       30.06R
DOUGLAS        CLOUDY    48  27  44 CALM      30.05R

$$
WYZ021-027>030-104>119-241200-
SOUTHERN WYOMING

CITY           SKY/WX    TMP DP  RH WIND       PRES   REMARKS
EVANSTON       CLEAR     43  23  45 SW13      30.22R
KEMMERER       MOSUNNY   41  27  56 CALM      30.22S
FORT BRIDGER   FAIR      47  24  39 SW3       30.24S
ROCK SPRINGS   PTCLDY    44  27  51 CALM      30.20S
DIXON          FAIR      44  33  65 CALM      30.27R
RAWLINS        MOCLDY    52  28  39 W14       30.19S
SARATOGA       FAIR      45  28  53 S5        30.24R
LARAMIE        MOCLDY    49  26  41 S6        30.22R
CHEYENNE       CLOUDY    54  26  34 NW3       30.16R
TORRINGTON     CLOUDY    60  33  36 NW3       30.02R
PINE BLUFFS    FAIR      50  34  53 W9        30.10S

$$



USA.gov is the U.S. government's official web portal to all federal, state and local government web resources and services.